Huntsville, AL

10:20 AM CDT on April 25, 2018 (GMT -0500)
Huntsville International

Weather History for KHSV - August, 2012

Change the Weather History Date:

Wednesday, August 8, 2012

  Actual Average Record
Temperature  
Mean Temperature 84 °F 81 °F  
Max Temperature 94 °F 91 °F 108 °F (1930)
Min Temperature 73 °F 70 °F 54 °F (1989)
Degree Days  
Heating Degree Days 0 0  
Month to date heating degree days 0 0  
Since 1 June heating degree days 0 1  
Since 1 July heating degree days 0 0  
Cooling Degree Days 19 16  
Month to date cooling degree days 141 128  
Year to date cooling degree days 1575 1253  
Since 1 June cooling degree days 1116 990  
Growing Degree Days 33 (Base 50)    
Moisture  
Dew Point 72 °F    
Average Humidity 73    
Maximum Humidity 91    
Minimum Humidity 39    
Precipitation  
Precipitation 0.00 in 0.12 in 1.57 in (2011)
Month to date precipitation 0.95 1.00  
Year to date precipitation 30.35 33.71  
Snow  
Snow 0.00 in - - ()
Month to date snowfall 0.0  
Since 1 June snowfall 0.0  
Since 1 July snowfall 0.0  
Snow Depth 0.00 in    
Sea Level Pressure  
Sea Level Pressure 29.97 in    
Wind  
Wind Speed 3 mph (SSE)    
Max Wind Speed 8 mph    
Max Gust Speed 13 mph    
Visibility 10 miles    
Events      
T = Trace of Precipitation, MM = Missing Value Source: NWS Daily Summary

Daily Weather History Graph

Daily Weather History Graph

Search for Another Location

Airport or City:

Astronomy

Aug. 08, 2012 Rise Set
Actual Time 6:02 AM CDT 7:41 PM CDT
Civil Twilight 5:35 AM CDT 8:08 PM CDT
Nautical Twilight 5:03 AM CDT 8:41 PM CDT
Astronomical Twilight 4:28 AM CDT 9:15 PM CDT
Moon 11:17 PM CDT (8/8) 12:27 PM CDT (8/8)
Length of Visible Light 14h 33m
Length of Day
13h 39m
Waning Gibbous, 60% of the Moon is Illuminated
Aug 8
Waning Gibbous
Aug 9
Last Quarter
Aug 17
New
Aug 24
First Quarter
Aug 31
Full

Hourly Weather History & Observations

Time (CDT) Temp. Heat Index Dew Point Humidity Pressure Visibility Wind Dir Wind Speed Gust Speed Precip Events Conditions
12:53 AM 75.9 °F - 73.0 °F 91% 29.97 in 10.0 mi Calm Calm - N/A   Partly Cloudy
1:53 AM 75.9 °F - 72.0 °F 87% 29.97 in 10.0 mi East 4.6 mph - N/A   Partly Cloudy
2:53 AM 75.0 °F - 72.0 °F 90% 29.96 in 10.0 mi SE 3.5 mph - N/A   Partly Cloudy
3:53 AM 75.0 °F - 72.0 °F 90% 29.96 in 10.0 mi East 5.8 mph - N/A   Clear
4:53 AM 73.9 °F - 71.1 °F 91% 29.98 in 10.0 mi Calm Calm - N/A   Partly Cloudy
5:53 AM 73.9 °F - 71.1 °F 91% 29.99 in 9.0 mi Calm Calm - N/A   Partly Cloudy
6:53 AM 75.0 °F - 72.0 °F 90% 29.99 in 8.0 mi SE 3.5 mph - N/A   Partly Cloudy
7:53 AM 77.0 °F - 73.0 °F 88% 30.01 in 9.0 mi Calm Calm - N/A   Partly Cloudy
7:56 AM 77.0 °F - 73.4 °F 89% 30.03 in 9.0 mi Calm Calm - N/A   Partly Cloudy
8:15 AM 78.8 °F - 73.4 °F 83% 30.04 in 10.0 mi Calm Calm - N/A   Mostly Cloudy
8:53 AM 81.0 °F 86.2 °F 73.9 °F 79% 30.01 in 10.0 mi Calm Calm - N/A   Scattered Clouds
9:53 AM 84.9 °F 93.3 °F 75.0 °F 72% 30.02 in 10.0 mi Variable 3.5 mph - N/A   Scattered Clouds
10:53 AM 88.0 °F 98.5 °F 75.9 °F 67% 30.02 in 10.0 mi North 3.5 mph - N/A   Scattered Clouds
11:53 AM 89.1 °F 95.0 °F 71.1 °F 55% 30.01 in 10.0 mi Calm Calm - N/A   Scattered Clouds
12:53 PM 91.9 °F 97.4 °F 70.0 °F 48% 29.99 in 10.0 mi NNE 4.6 mph - N/A   Scattered Clouds
1:53 PM 91.9 °F 97.4 °F 70.0 °F 48% 29.97 in 10.0 mi Variable 3.5 mph - N/A   Scattered Clouds
2:53 PM 93.0 °F 100.7 °F 72.0 °F 50% 29.95 in 10.0 mi Variable 3.5 mph - N/A   Mostly Cloudy
3:53 PM 90.0 °F 94.5 °F 69.1 °F 50% 29.94 in 10.0 mi Calm Calm - N/A   Mostly Cloudy
4:53 PM 90.0 °F 96.9 °F 72.0 °F 55% 29.92 in 10.0 mi SSE 4.6 mph - N/A   Mostly Cloudy
5:53 PM 91.0 °F 98.2 °F 72.0 °F 53% 29.91 in 10.0 mi South 3.5 mph - N/A   Mostly Cloudy
6:53 PM 86.0 °F 90.7 °F 70.0 °F 59% 29.92 in 10.0 mi SW 5.8 mph - N/A   Mostly Cloudy
7:53 PM 82.9 °F 88.8 °F 73.0 °F 72% 29.93 in 10.0 mi SSW 4.6 mph - N/A   Mostly Cloudy
8:53 PM 80.1 °F 84.5 °F 73.9 °F 81% 29.95 in 10.0 mi South 4.6 mph - N/A   Mostly Cloudy
9:53 PM 80.1 °F 84.2 °F 73.0 °F 79% 29.95 in 10.0 mi SSE 3.5 mph - N/A   Mostly Cloudy
10:53 PM 80.1 °F 84.2 °F 73.0 °F 79% 29.96 in 10.0 mi SSW 3.5 mph - N/A   Overcast
11:53 PM 78.1 °F - 73.0 °F 84% 29.95 in 8.0 mi SE 4.6 mph - N/A   Overcast